Vertical_Velocity
0 1 1 0 3 1 1 2 1 2 1 1 -0 -0 -2 1 -0 -1 -1 -1 -4 -1 -1 -1 -2 -3 -2 -2 -5 -5 -3 -5 4 -3 1 2 1 5 5 5 5 4 -4 11 10 -6 -2
0 -0 1 -0 1 1 1 0 1 1 1 1 1 -0 0 1 -1 -2 -1 -1 -3 -0 -3 0 -3 -2 -2 -7 8 -4 -2 -2 2 -0 1 3 -1 -5 3 -2 4 3 -2 -2 9 -14 7
0 1 1 -0 1 1 1 1 -1 1 1 1 1 1 0 1 0 0 -1 -2 -2 1 -3 -0 -4 -3 -2 -8 -3 -3 -4 -0 1 -1 -0 -4 -10 2 -4 -1 -7 13 -4 -5 -10 4 -12
5 0 -2 -0 -0 -0 2 1 2 0 1 1 2 2 1 2 -3 1 -0 -2 -2 -0 -3 -1 -3 -3 -6 -1 -3 -2 -5 -2 2 -0 3 -4 7 -4 3 1 -6 -1 -2 5 3 -2 2
0 -0 3 4 1 -1 -0 -1 0 -0 1 -0 1 2 2 4 -2 1 -2 -2 -2 -0 -2 -0 -3 -2 -6 -3 -1 -6 -3 -4 -4 -2 -1 1 -6 7 2 1 -3 -3 3 6 1 6 -5
-0 0 0 3 1 0 0 1 1 -1 4 0 -1 0 1 1 -1 1 -2 -4 -0 -0 -3 0 -2 -0 -4 -4 -0 -4 -1 -2 -3 -1 -2 -1 -1 -3 -3 6 -3 -0 8 -2 -2 2 5
2 -1 0 0 2 1 3 1 0 -0 -1 3 2 2 2 -0 0 2 -1 -5 3 1 -3 1 -2 1 -2 -4 0 -2 -6 -2 -3 2 2 -3 4 -2 3 5 1 1 2 1 -1 4 4
1 1 2 0 -1 1 1 2 -1 -2 -0 1 4 1 1 -1 -0 1 -1 -6 11 -4 -3 -1 -1 -2 -1 -1 0 -4 -5 3 -4 -0 -2 -2 -4 1 -2 15 5 -6 -8 3 -2 -9 6
1 -0 -0 0 1 0 1 3 -2 1 -1 1 2 3 2 -4 3 0 -1 -5 -0 -1 -1 -1 -1 -1 -4 1 -1 1 -5 2 -4 -3 -4 4 -6 -2 -4 2 -2 1 6 -3 2 6 -1
0 2 -0 -0 2 1 -0 2 3 -1 -2 1 1 4 1 -2 6 -5 -1 -1 -1 -2 -4 4 -4 -1 -1 0 -3 -1 -10 -1 3 -5 -2 -2 1 -4 5 2 -0 -3 3 -1 2 -1 -0
2 -1 -1 2 -1 3 1 2 -2 1 -1 1 4 3 -1 7 5 -6 10 1 -9 0 -2 -10 4 1 -2 2 -10 0 -5 -4 3 -2 -5 -7 -8 -3 -4 -1 1 -2 0 0 2 3 -5
2 2 -1 0 1 1 3 1 -1 -2 -0 -3 5 3 -2 9 2 -7 -2 -1 -4 -4 6 -8 5 -2 -1 -3 -2 -5 -3 -0 4 2 -1 -3 2 2 8 -0 2 1 -0 5 1 -4 -2
5 5 -2 -1 3 1 -3 4 1 0 1 -4 3 3 4 2 -8 17 -1 2 -9 -4 -10 -9 -3 -2 -2 0 -4 -5 -5 -1 1 0 -5 -10 2 4 -4 -2 2 3 2 -2 0 -3 -1
-0 5 3 -2 -0 3 4 2 4 1 2 -1 0 4 1 14 -3 12 -2 -11 -11 16 -1 -8 -1 -3 -3 -3 -6 -4 -1 -2 -1 1 -0 -12 -3 -7 -1 4 -1 2 5 -0 -5 -4 2
5 4 6 1 2 -3 2 4 7 -0 5 1 -3 -2 1 15 3 4 -8 -20 3 15 3 -2 -3 1 -2 -2 -7 -2 -1 3 6 4 -0 -1 -2 2 6 0 -10 7 -2 -1 1 -3 -6
2 -11 11 -2 3 1 -0 4 5 1 6 -2 -7 5 20 -4 2 -2 -17 -3 11 8 -0 -4 -4 -0 -0 -8 -8 -2 -3 2 -1 7 4 3 -12 -3 15 -7 -4 -0 7 1 -2 -6 -4
-2 -3 -1 5 0 2 4 3 3 2 2 2 -4 -7 46 -4 6 -19 -25 2 24 2 -1 -3 -0 -2 0 -10 -6 -5 4 8 4 5 -4 1 -2 -12 -13 -5 -3 1 -0 -1 3 -0 -2
-4 -1 2 -1 7 -0 1 4 6 0 6 -10 -8 -13 36 -11 -6 -5 -7 15 19 -0 -2 -5 -1 -6 -0 -5 -2 -6 -0 2 8 8 0 7 1 -0 7 -13 1 -1 3 15 1 4 -5
1 -1 1 5 2 3 4 6 7 0 0 3 -11 14 22 -5 -31 -17 2 16 15 -12 -1 -0 4 -5 -0 3 -2 7 -4 2 1 -4 -5 2 -2 1 -4 -1 6 1 2 0 -4 1 3
-3 -2 -4 -2 8 5 6 9 7 -1 7 -5 -3 3 0 -22 3 -8 -5 18 5 -2 4 -2 1 -2 -1 -3 -2 16 -1 -2 2 3 -2 -0 -0 0 0 4 -3 -5 1 2 3 -2 3
-1 -3 -4 -2 2 9 9 9 8 3 9 5 -13 -27 6 -28 -20 1 -8 15 17 -9 1 4 -2 -4 -8 -3 -11 -7 -5 -4 1 4 1 -1 1 -2 -1 0 -2 -5 -3 6 -3 -0 -3
-6 -2 -1 -5 -2 17 21 2 20 7 14 6 -19 -17 -11 -2 1 5 3 -8 3 1 4 2 0 -6 -3 -1 -0 -1 4 3 2 3 -2 1 -3 -2 1 -1 -3 -3 2 1 3 3 1
-4 2 -5 0 2 -1 11 17 9 11 6 -12 -1 8 -4 -1 1 -10 -9 16 12 3 -1 0 9 -2 -2 2 -3 -8 2 1 2 3 2 2 0 -2 2 -2 -1 -3 3 -2 3 4 1
-2 3 -4 2 4 -0 -1 17 19 19 3 -4 9 17 4 -15 -11 9 7 6 3 3 8 5 -1 2 -6 -0 1 -5 6 -1 1 4 -2 2 -0 -2 1 -2 -3 -3 3 1 3 -3 -2
0 2 -4 -3 2 5 0 6 20 17 12 -8 15 -4 0 -16 25 -16 -4 1 19 5 6 8 -3 5 3 -5 5 12 2 -2 2 2 0 4 1 -1 -5 -1 3 -2 4 1 -3 -2 -1
0 1 -1 5 5 3 3 0 6 17 6 -6 15 -1 -9 -2 -30 60 14 4 8 -1 -10 -17 6 6 0 -7 -8 -5 2 3 -3 -1 1 3 -1 -3 1 -2 -1 -0 -3 2 -3 -5 4
3 0 -3 -2 0 4 1 1 6 5 1 5 -4 -4 4 -5 2 9 -39 -6 33 7 -1 7 3 3 -0 -4 -2 -3 -1 -3 -2 1 1 -2 1 0 -1 -2 -0 -1 6 -3 -4 0 4
-3 -2 -2 1 -1 3 1 4 -2 8 6 1 2 -2 4 4 0 10 9 -3 -5 -27 -7 14 -12 -5 -9 17 -8 -2 0 -1 2 1 2 -1 -1 1 0 -0 -1 -0 -1 0 0 0 -0
2 2 1 -1 -1 1 2 -4 -2 -9 0 -1 4 22 5 -4 1 5 -26 -6 -23 11 5 -11 31 22 3 -7 -8 -1 -0 1 3 0 -1 -2 -1 -0 -1 2 -5 2 -2 1 4 6 -6
Height
5773 5776 5778 5782 5785 5787 5790 5793 5795 5797 5800 5802 5803 5804 5806 5806 5806 5805 5805 5802 5801 5797 5792 5788 5782 5775 5770 5768 5767 5766 5765 5763 5762 5762 5762 5763 5764 5766 5767 5769 5775 5777 5779 5782 5782 5784 5785
5762 5765 5768 5771 5775 5778 5781 5783 5786 5789 5792 5794 5796 5797 5800 5801 5801 5800 5799 5798 5795 5793 5789 5784 5779 5772 5769 5768 5768 5765 5763 5761 5761 5762 5762 5763 5764 5763 5765 5766 5772 5776 5779 5781 5782 5780 5787
5748 5752 5755 5759 5764 5767 5771 5774 5777 5780 5783 5786 5788 5790 5792 5794 5795 5795 5793 5793 5791 5789 5785 5781 5776 5771 5768 5767 5767 5765 5762 5761 5760 5761 5761 5761 5762 5764 5764 5764 5765 5771 5778 5780 5782 5784 5785
5734 5738 5742 5746 5750 5755 5760 5764 5768 5771 5774 5778 5780 5783 5785 5787 5789 5789 5789 5788 5786 5784 5781 5778 5774 5770 5768 5766 5765 5763 5762 5761 5760 5759 5759 5760 5763 5764 5766 5771 5772 5773 5776 5781 5783 5785 5782
5721 5725 5730 5733 5737 5742 5747 5752 5758 5762 5765 5769 5772 5776 5778 5780 5782 5783 5784 5783 5781 5780 5778 5775 5773 5769 5767 5764 5763 5762 5761 5759 5759 5755 5757 5758 5760 5764 5767 5769 5772 5774 5776 5781 5783 5783 5785
5705 5711 5715 5720 5726 5731 5735 5740 5746 5751 5756 5760 5764 5768 5771 5774 5775 5777 5778 5778 5777 5777 5775 5772 5770 5769 5766 5764 5762 5760 5759 5757 5758 5758 5759 5760 5761 5762 5764 5770 5773 5773 5776 5779 5780 5785 5786
5689 5695 5701 5706 5712 5718 5723 5728 5734 5740 5746 5752 5755 5759 5763 5767 5769 5770 5772 5773 5775 5775 5771 5769 5766 5765 5764 5763 5762 5760 5757 5757 5759 5760 5760 5760 5762 5764 5767 5768 5772 5772 5777 5780 5781 5784 5787
5671 5678 5684 5692 5698 5705 5712 5717 5722 5729 5735 5742 5747 5751 5755 5759 5763 5764 5766 5766 5769 5768 5767 5766 5763 5762 5761 5760 5760 5758 5756 5758 5758 5761 5760 5761 5761 5765 5768 5772 5773 5774 5775 5779 5783 5782 5788
5653 5661 5669 5675 5683 5689 5697 5704 5710 5717 5723 5731 5737 5742 5746 5751 5755 5758 5760 5760 5762 5763 5764 5762 5759 5758 5757 5758 5757 5757 5755 5756 5758 5759 5759 5762 5764 5765 5767 5772 5771 5773 5778 5778 5784 5785 5787
5635 5643 5650 5659 5668 5675 5683 5691 5698 5704 5712 5719 5727 5732 5737 5743 5748 5750 5752 5756 5756 5758 5758 5760 5756 5755 5754 5754 5755 5754 5752 5756 5759 5759 5760 5761 5763 5765 5769 5770 5772 5772 5776 5780 5780 5784 5785
5612 5622 5633 5640 5651 5661 5669 5678 5685 5693 5700 5708 5717 5721 5727 5734 5739 5744 5748 5748 5750 5752 5753 5754 5754 5751 5750 5752 5750 5751 5750 5753 5759 5761 5762 5761 5765 5767 5768 5769 5773 5775 5777 5780 5782 5782 5782
5591 5600 5610 5623 5633 5645 5655 5664 5673 5680 5689 5696 5705 5712 5719 5727 5729 5735 5738 5741 5745 5748 5748 5748 5749 5747 5747 5748 5750 5747 5750 5755 5756 5761 5763 5763 5766 5768 5769 5769 5773 5775 5777 5779 5780 5779 5780
5569 5579 5589 5600 5614 5627 5640 5650 5659 5669 5677 5685 5694 5702 5710 5716 5719 5727 5732 5735 5739 5740 5744 5744 5744 5743 5743 5746 5747 5744 5748 5751 5756 5761 5762 5763 5765 5766 5767 5770 5772 5773 5775 5775 5777 5776 5778
5537 5555 5568 5579 5593 5606 5619 5632 5644 5655 5665 5672 5682 5692 5699 5706 5711 5719 5723 5727 5730 5737 5740 5739 5739 5739 5742 5744 5744 5743 5745 5750 5754 5758 5760 5761 5764 5762 5764 5768 5770 5772 5773 5772 5771 5774 5775
5503 5523 5542 5557 5570 5586 5601 5614 5626 5637 5651 5659 5668 5679 5689 5694 5701 5706 5714 5718 5725 5734 5736 5735 5735 5736 5739 5741 5742 5743 5743 5747 5751 5755 5758 5759 5761 5762 5764 5765 5766 5770 5769 5770 5770 5771 5773
5466 5484 5510 5531 5549 5563 5580 5596 5610 5621 5633 5645 5655 5667 5680 5681 5690 5697 5705 5710 5718 5727 5729 5729 5730 5733 5736 5738 5739 5741 5744 5747 5747 5751 5753 5755 5758 5760 5761 5761 5763 5765 5768 5768 5768 5768 5769
5435 5452 5471 5500 5522 5540 5557 5575 5592 5605 5616 5628 5640 5654 5668 5669 5677 5684 5692 5704 5715 5719 5722 5723 5726 5729 5733 5735 5738 5740 5742 5745 5746 5747 5750 5753 5755 5757 5757 5760 5760 5763 5764 5765 5765 5764 5765
5418 5425 5442 5462 5491 5513 5534 5553 5572 5587 5599 5609 5625 5639 5651 5655 5664 5675 5687 5700 5709 5711 5715 5717 5720 5725 5730 5733 5735 5738 5740 5742 5744 5746 5747 5750 5751 5754 5757 5757 5759 5759 5761 5762 5761 5763 5760
5403 5411 5418 5434 5455 5483 5506 5529 5549 5566 5584 5597 5612 5625 5634 5642 5655 5668 5680 5689 5700 5703 5707 5712 5716 5721 5725 5728 5728 5735 5736 5738 5740 5741 5744 5746 5747 5750 5752 5755 5756 5755 5756 5756 5755 5756 5757
5388 5396 5404 5413 5430 5451 5482 5503 5526 5546 5566 5581 5594 5604 5619 5631 5653 5663 5672 5680 5690 5696 5700 5706 5712 5717 5722 5722 5725 5730 5733 5734 5737 5739 5741 5743 5744 5747 5749 5751 5749 5749 5751 5751 5751 5750 5752
5374 5382 5390 5396 5407 5427 5453 5478 5503 5524 5545 5560 5573 5593 5611 5625 5636 5649 5659 5670 5681 5685 5693 5700 5704 5709 5716 5720 5723 5725 5727 5730 5734 5737 5738 5738 5740 5741 5743 5745 5743 5743 5745 5745 5745 5746 5747
5362 5371 5378 5383 5390 5407 5429 5449 5477 5505 5524 5537 5563 5589 5604 5620 5632 5640 5650 5660 5671 5679 5687 5694 5699 5705 5711 5714 5719 5720 5723 5726 5729 5732 5732 5733 5734 5735 5737 5737 5736 5737 5740 5741 5742 5743 5743
5351 5361 5368 5374 5380 5393 5413 5431 5460 5484 5497 5515 5553 5582 5596 5609 5619 5627 5643 5655 5667 5674 5681 5688 5696 5701 5705 5708 5712 5715 5718 5721 5723 5725 5726 5726 5728 5728 5730 5730 5731 5734 5735 5735 5737 5738 5738
5341 5352 5360 5367 5374 5384 5400 5423 5442 5464 5486 5517 5548 5567 5583 5595 5606 5626 5636 5647 5659 5665 5674 5682 5690 5696 5699 5703 5709 5712 5714 5715 5717 5719 5718 5720 5720 5722 5724 5725 5726 5729 5730 5731 5732 5731 5731
5332 5343 5352 5360 5368 5379 5392 5414 5432 5453 5481 5509 5537 5553 5571 5588 5604 5612 5626 5641 5652 5659 5666 5676 5681 5688 5694 5700 5704 5707 5708 5709 5711 5712 5713 5714 5715 5716 5718 5719 5723 5723 5725 5727 5726 5726 5726
5324 5333 5343 5353 5363 5373 5386 5404 5430 5447 5475 5506 5526 5544 5565 5581 5596 5612 5621 5631 5640 5649 5657 5665 5673 5680 5686 5692 5698 5700 5703 5705 5705 5706 5708 5710 5710 5711 5713 5714 5716 5718 5719 5721 5720 5719 5721
5319 5328 5337 5349 5359 5368 5380 5398 5425 5448 5476 5501 5520 5543 5564 5577 5586 5598 5610 5625 5635 5643 5652 5661 5666 5673 5682 5688 5692 5695 5698 5699 5701 5702 5703 5704 5705 5706 5707 5709 5711 5713 5715 5715 5715 5717 5714
5316 5325 5335 5344 5353 5363 5376 5395 5425 5451 5476 5500 5523 5542 5560 5574 5584 5597 5608 5617 5625 5636 5643 5652 5658 5663 5674 5681 5685 5689 5693 5695 5697 5698 5699 5701 5702 5703 5704 5705 5707 5708 5709 5710 5709 5707 5706
5316 5325 5333 5341 5351 5363 5377 5398 5429 5456 5480 5505 5525 5546 5563 5574 5583 5589 5600 5610 5624 5634 5638 5647 5656 5662 5670 5677 5681 5685 5688 5690 5693 5694 5695 5698 5699 5700 5701 5702 5701 5701 5701 5702 5702 5701 5697